Regional Weather Roundup
Issued by NWS Goodland, KS

Home | Current Version | Previous Version | Text Only | Print | Product List | Glossary Off
Versions: 1 2 3 4 5 6 7 8 9 10 11 12 13 14 15 16 17 18 19 20 21 22 23 24 25 26 27 28 29 30 31 32 33 34 35 36 37 38 39 40 41 42 43 44 45 46 47 48 49 50

000
ASUS43 KGLD 211108
RWRGLD

GOODLAND FORECAST AREA HOURLY WEATHER ROUNDUP
NATIONAL WEATHER SERVICE GOODLAND KS
500 AM MDT TUE OCT 21 2014

...OFFICIAL OBSERVATIONS...

CITY           SKY/WX    TMP DP  RH WIND       PRES   REMARKS
GOODLAND KS    CLEAR     48  47  96 S9        30.07F
HILL CITY KS   CLEAR     41  37  86 CALM      30.09R
IMPERIAL NEB   CLEAR     53  42  66 S10       30.03S
MCCOOK NEB     CLEAR     48  39  71 SE3       30.06S
AKRON CO       CLEAR     51  48  89 S12       30.02S
BURLINGTON CO  CLEAR     52  50  93 S13       30.07S
LIMON CO       CLEAR     41  41 100 E6        30.09S
$$

...UNOFFICIAL OBSERVATIONS...

CITY           SKY/WX    TMP DP  RH WIND       PRES   REMARKS
COLBY KS       CLEAR     46  43  87 S3        30.08S
GOVE KS          N/A     40  32  73 MISG        N/A
NORTON KS      CLEAR     41  36  81 SW6       30.07R
SHARON SPRINGS   N/A     48  46  92 S7          N/A
TRENTON NEB      N/A     46  32  58 S5          N/A
KIT CARSON CO    N/A     44  41  88 CALM        N/A
YUMA CO          N/A     53  49  86 S9          N/A
$$



USA.gov is the U.S. government's official web portal to all federal, state and local government web resources and services.